Regional Weather Roundup
Issued by NWS

Home | Current Version | Previous Version | Graphics & Text | Print | Product List | Glossary On
Versions: 1 2 3 4 5 6 7 8 9 10 11 12 13 14 15 16 17 18 19 20 21 22 23 24 25 26 27 28 29 30 31 32 33 34 35 36 37 38 39 40 41 42 43 44 45 46 47 48 49 50
000
ASUS43 KLMK 022202
RWRKY
KENTUCKY REGIONAL WEATHER ROUNDUP
NATIONAL WEATHER SERVICE LOUISVILLE KY
600 PM EDT TUE SEP 02 2014

NOTE "FAIR" INDICATES FEW OR NO CLOUDS BELOW 12,000 FEET
WITH NO SIGNIFICANT WEATHER AND/OR OBSTRUCTIONS TO VISIBILITY.

KYZ001>023-026-027-061>063-070>075-022300-
WESTERN AND SOUTH CENTRAL KENTUCKY

CITY           SKY/WX    TMP DP  RH WIND       PRES   REMARKS
PADUCAH        CLOUDY    84  68  58 NW3       29.92F
HENDERSON      PTSUNNY   82  70  65 NW9       29.92S
OWENSBORO      MOSUNNY   84  72  65 W12       29.93S
HOPKINSVILLE   TSTM      75  73  94 W6G18     29.94S FOG
BOWLING GREEN  MOSUNNY   86  68  54 NW7       29.94R
GLASGOW        MOSUNNY   77  71  81 SW3       29.95F
$$

KYZ024-025-028>034-038-045-046-053-022300-
NORTH CENTRAL KENTUCKY

CITY           SKY/WX    TMP DP  RH WIND       PRES   REMARKS
LOUISVILLE/SDF MOSUNNY   82  71  69 N13       29.93R
LOUISVILLE/LOU MOSUNNY   81  70  69 NW12G20   29.94R
FORT KNOX      MOSUNNY   85  72  65 W7        29.93S HX  90
$$

KYZ035>037-039>044-047>052-055>060-089>105-022300-
NORTHEAST KENTUCKY

CITY           SKY/WX    TMP DP  RH WIND       PRES   REMARKS
LEXINGTON      CLOUDY    78  71  79 S10       29.96F
COVINGTON      PTSUNNY   75  72  90 CALM      29.95S
FRANKFORT      PTSUNNY   83  72  69 SW9       29.92F
$$

KYZ054-064>069-076>088-106>120-022300-
SOUTHEAST KENTUCKY

CITY           SKY/WX    TMP DP  RH WIND       PRES   REMARKS
JACKSON        TSTM      73  71  93 W7        30.01R FOG
LONDON         RAIN      78  69  73 W12G21    30.01R
SOMERSET       NOT AVBL
MIDDLESBORO    MOSUNNY   86  71  60 S7        29.97F HX  91
MONTICELLO     MOCLDY    71  69  93 CALM      30.00F THUNDER
$$




USA.gov is the U.S. government's official web portal to all federal, state and local government web resources and services.